�N����,�����b,�ŏ������i�x�j,���ϕ����i�x�j,�ő啗���i�x�j,�ŏ�����(m/s),���ϕ���(m/s),�ő啗��(m/s),�C��(���j,���x�i���j,�C��(hPa),�~�J��(mm),�~�J����(�b�j,�~�J���x(mm/h),�ő�~�J���x(mm/h),�~�Ђ傤��(hit/���u),�~�Ђ傤����(�b�j,�~�Ђ傤���x(hit/���uh),�ő�~�Ђ傤���x(hit/���uh),�q�[�^���x(���j,�q�[�^�[�d���iV),�d���d���iV),�Q�Ɠd���iV)
2014/06/01,00:00:01,039,057,070,4.3,5.1,6.0,23.0,90.2,1005.5,0.00,0,0.0,////,0.0,0,0.0,////,22.2,0.0,12.3,3.523
2014/06/01,00:10:01,070,077,084,5.1,5.7,6.1,23.0,89.7,1005.3,0.00,0,0.0,////,0.0,0,0.0,////,22.2,0.0,12.3,3.521
2014/06/01,00:20:01,108,111,115,2.9,3.9,5.0,23.0,89.7,1005.4,0.00,0,0.0,////,0.0,0,0.0,////,22.4,0.0,12.3,3.521
2014/06/01,00:30:01,063,072,084,3.8,4.3,4.9,23.1,90.3,1005.2,0.00,0,0.0,////,0.0,0,0.0,////,22.2,0.0,12.3,3.521
2014/06/01,00:40:01,108,111,117,2.2,2.4,2.8,23.1,90.5,1005.1,0.00,0,0.0,////,0.0,0,0.0,////,22.2,0.0,12.3,3.524
2014/06/01,00:50:01,069,076,083,4.3,4.9,5.7,23.0,90.4,1004.9,0.00,0,0.0,////,0.0,0,0.0,////,22.2,0.0,12.3,3.523
2014/06/01,01:00:01,063,081,105,1.9,2.5,3.2,23.0,90.4,1004.9,0.00,0,0.0,////,0.0,0,0.0,////,22.0,0.0,12.3,3.521
2014/06/01,01:10:01,108,110,113,3.6,4.0,4.7,23.0,90.5,1004.8,0.00,0,0.0,////,0.0,0,0.0,////,22.0,0.0,12.2,3.523
2014/06/01,01:20:01,071,090,100,1.2,1.7,2.5,23.0,90.4,1004.8,0.00,0,0.0,////,0.0,0,0.0,////,22.2,0.0,12.3,3.521
2014/06/01,01:30:01,096,099,104,3.2,3.6,4.0,22.9,90.1,1004.8,0.00,0,0.0,////,0.0,0,0.0,////,22.4,0.0,12.3,3.521
2014/06/01,01:40:01,035,055,071,4.2,5.0,5.5,23.0,90.0,1004.8,0.00,0,0.0,////,0.0,0,0.0,////,22.2,0.0,12.3,3.523
2014/06/01,01:50:01,092,107,117,1.5,1.9,2.4,23.0,90.0,1004.6,0.00,0,0.0,////,0.0,0,0.0,////,22.2,0.0,12.3,3.523
2014/06/01,02:00:01,055,064,069,2.0,2.2,2.3,22.9,89.9,1004.7,0.00,0,0.0,////,0.0,0,0.0,////,22.2,0.0,12.3,3.521
2014/06/01,02:10:01,059,065,075,4.6,4.9,5.3,22.9,89.7,1004.8,0.00,0,0.0,////,0.0,0,0.0,////,22.0,0.0,12.3,3.523
2014/06/01,02:20:01,072,081,090,3.1,3.5,4.1,22.9,89.9,1004.6,0.00,0,0.0,////,0.0,0,0.0,////,22.2,0.0,12.3,3.523
2014/06/01,02:30:01,067,072,076,7.1,7.3,7.4,22.9,90.2,1004.3,0.00,0,0.0,////,0.0,0,0.0,////,21.8,0.0,12.3,3.523
2014/06/01,02:40:01,086,088,091,3.1,3.7,4.5,22.9,90.2,1004.3,0.00,0,0.0,////,0.0,0,0.0,////,22.2,0.0,12.2,3.521
2014/06/01,02:50:01,120,125,131,2.4,2.9,3.5,22.9,89.9,1004.0,0.00,0,0.0,////,0.0,0,0.0,////,22.0,0.0,12.3,3.523
2014/06/01,03:00:01,085,091,095,4.8,5.6,6.4,22.9,90.2,1003.9,0.00,0,0.0,////,0.0,0,0.0,////,22.0,0.0,12.3,3.523
2014/06/01,03:10:01,058,078,095,2.0,2.2,2.5,22.9,90.0,1003.9,0.00,0,0.0,////,0.0,0,0.0,////,22.2,0.0,12.3,3.523
2014/06/01,03:20:01,083,090,096,5.0,5.5,6.0,22.8,90.3,1003.8,0.00,0,0.0,////,0.0,0,0.0,////,21.8,0.0,12.3,3.523
2014/06/01,03:30:01,102,106,108,5.4,5.9,6.2,22.8,90.5,1003.9,0.00,0,0.0,////,0.0,0,0.0,////,22.0,0.0,12.3,3.521
2014/06/01,03:40:01,051,077,116,1.6,3.1,4.4,22.7,90.3,1003.9,0.00,0,0.0,////,0.0,0,0.0,////,21.8,0.0,12.3,3.521
2014/06/01,03:50:01,081,101,112,2.3,2.5,2.8,22.7,89.6,1003.9,0.00,0,0.0,////,0.0,0,0.0,////,21.8,0.0,12.3,3.521
2014/06/01,04:00:01,046,053,058,1.1,2.0,2.9,22.7,89.3,1003.9,0.00,0,0.0,////,0.0,0,0.0,////,21.8,0.0,12.3,3.521
2014/06/01,04:10:01,082,087,092,3.9,4.4,4.9,22.6,89.2,1003.8,0.00,0,0.0,////,0.0,0,0.0,////,21.3,0.0,12.3,3.524
2014/06/01,04:20:01,097,101,104,4.3,4.9,5.4,22.7,89.2,1003.8,0.00,0,0.0,////,0.0,0,0.0,////,21.8,0.0,12.3,3.521
2014/06/01,04:30:01,003,075,121,1.4,1.8,2.1,22.6,88.9,1003.7,0.00,0,0.0,////,0.0,0,0.0,////,22.2,0.0,12.3,3.521
2014/06/01,04:40:01,077,080,082,6.0,7.0,7.5,22.6,88.8,1003.5,0.00,0,0.0,////,0.0,0,0.0,////,21.8,0.0,12.3,3.520
2014/06/01,04:50:01,078,089,108,3.2,3.7,4.1,22.6,88.5,1003.6,0.00,0,0.0,////,0.0,0,0.0,////,21.7,0.0,12.3,3.521
2014/06/01,05:00:01,069,077,082,3.0,3.4,3.9,22.6,88.1,1003.5,0.00,0,0.0,////,0.0,0,0.0,////,21.8,0.0,12.3,3.523
2014/06/01,05:10:01,032,055,069,1.5,2.0,2.7,22.6,87.8,1003.5,0.00,0,0.0,////,0.0,0,0.0,////,21.7,0.0,12.3,3.523
2014/06/01,05:20:01,097,107,114,4.9,5.5,6.5,22.5,87.8,1003.6,0.00,0,0.0,////,0.0,0,0.0,////,21.7,0.0,12.3,3.521
2014/06/01,05:30:01,050,059,073,0.8,1.9,3.1,22.6,87.5,1003.8,0.00,0,0.0,////,0.0,0,0.0,////,21.8,0.0,12.3,3.523
2014/06/01,05:40:01,111,114,117,2.8,3.8,4.3,22.6,87.0,1003.9,0.00,0,0.0,////,0.0,0,0.0,////,21.7,0.0,12.3,3.521
2014/06/01,05:50:01,107,110,114,3.5,3.7,4.0,22.6,87.2,1004.1,0.00,0,0.0,////,0.0,0,0.0,////,22.0,0.0,12.3,3.523
2014/06/01,06:00:01,086,087,089,3.3,4.2,4.9,22.6,87.2,1004.1,0.00,0,0.0,////,0.0,0,0.0,////,22.0,0.0,12.3,3.523
2014/06/01,06:10:01,081,087,096,3.2,3.6,4.2,22.6,87.6,1004.0,0.00,0,0.0,////,0.0,0,0.0,////,21.8,0.0,12.3,3.521
2014/06/01,06:20:01,071,081,086,3.0,4.0,4.6,22.7,87.8,1004.1,0.00,0,0.0,////,0.0,0,0.0,////,22.0,0.0,12.3,3.523
2014/06/01,06:30:01,102,106,113,2.7,2.9,3.2,22.6,87.1,1004.0,0.00,0,0.0,////,0.0,0,0.0,////,22.0,0.0,12.3,3.521
2014/06/01,06:40:01,085,087,091,4.2,4.6,4.9,22.7,86.9,1004.1,0.00,0,0.0,////,0.0,0,0.0,////,22.0,0.0,12.3,3.521
2014/06/01,06:50:01,099,105,109,1.5,2.5,3.5,22.7,86.9,1004.2,0.00,0,0.0,////,0.0,0,0.0,////,22.0,0.0,12.3,3.523
2014/06/01,07:00:01,064,069,072,2.3,2.7,3.2,22.9,86.5,1004.3,0.00,0,0.0,////,0.0,0,0.0,////,22.5,0.0,12.3,3.521
2014/06/01,07:10:01,056,072,097,1.3,2.5,3.1,23.1,85.8,1004.3,0.00,0,0.0,////,0.0,0,0.0,////,22.9,0.0,12.3,3.523
2014/06/01,07:20:01,089,092,096,3.8,4.5,4.9,23.0,86.2,1004.3,0.00,0,0.0,////,0.0,0,0.0,////,22.5,0.0,12.3,3.523
2014/06/01,07:30:01,065,082,108,2.1,2.9,3.4,22.9,86.9,1004.3,0.00,0,0.0,////,0.0,0,0.0,////,22.7,0.0,12.3,3.521
2014/06/01,07:40:01,042,079,099,1.3,2.1,2.7,22.9,87.2,1004.2,0.00,0,0.0,////,0.0,0,0.0,////,22.5,0.0,12.3,3.523
2014/06/01,07:50:01,105,112,119,3.8,4.0,4.2,22.9,87.0,1004.3,0.00,0,0.0,////,0.0,0,0.0,////,22.5,0.0,12.1,3.521
2014/06/01,08:00:01,065,087,113,1.8,2.7,3.6,22.9,86.8,1004.3,0.00,0,0.0,////,0.0,0,0.0,////,22.5,0.0,12.3,3.521
2014/06/01,08:10:01,090,106,118,2.7,3.8,5.2,23.0,86.6,1004.2,0.00,0,0.0,////,0.0,0,0.0,////,22.9,0.0,12.3,3.523
2014/06/01,08:20:01,077,092,102,3.4,3.7,4.0,23.0,86.6,1004.4,0.00,0,0.0,////,0.0,0,0.0,////,22.9,0.0,12.3,3.521
2014/06/01,08:30:01,064,071,076,3.4,4.4,5.5,23.0,86.6,1004.4,0.00,0,0.0,////,0.0,0,0.0,////,22.5,0.0,12.3,3.521
2014/06/01,08:40:01,076,089,106,3.2,3.5,3.9,23.1,86.7,1004.5,0.00,0,0.0,////,0.0,0,0.0,////,22.7,0.0,12.3,3.521
2014/06/01,08:50:01,068,079,088,3.9,4.2,4.5,23.1,86.7,1004.7,0.00,0,0.0,////,0.0,0,0.0,////,22.7,0.0,12.3,3.521
2014/06/01,09:00:01,084,094,098,4.8,5.5,6.2,23.2,85.6,1004.7,0.00,0,0.0,////,0.0,0,0.0,////,23.2,0.0,12.2,3.521
2014/06/01,09:10:01,076,096,112,4.6,5.0,5.5,23.5,85.4,1004.8,0.00,0,0.0,////,0.0,0,0.0,////,24.1,0.0,12.3,3.521
2014/06/01,09:20:01,101,103,105,5.3,5.9,6.3,23.6,85.4,1004.7,0.00,0,0.0,////,0.0,0,0.0,////,24.3,0.0,12.3,3.523
2014/06/01,09:30:01,061,088,115,3.8,4.6,5.6,23.5,84.5,1004.6,0.00,0,0.0,////,0.0,0,0.0,////,23.9,0.0,12.3,3.521
2014/06/01,09:40:01,077,098,120,2.4,2.7,3.1,23.7,84.9,1004.7,0.00,0,0.0,////,0.0,0,0.0,////,24.3,0.0,12.3,3.521
2014/06/01,09:50:01,083,087,094,2.3,2.8,3.7,23.9,83.8,1004.7,0.00,0,0.0,////,0.0,0,0.0,////,24.8,0.0,12.3,3.521
2014/06/01,10:00:01,075,079,084,3.6,3.9,4.2,23.6,84.2,1004.8,0.00,0,0.0,////,0.0,0,0.0,////,24.3,0.0,12.3,3.521
2014/06/01,10:10:01,064,071,079,2.1,3.0,3.8,23.5,84.6,1004.9,0.00,0,0.0,////,0.0,0,0.0,////,23.9,0.0,12.3,3.521
2014/06/01,10:20:01,059,069,081,3.6,4.3,4.6,23.4,84.9,1004.9,0.00,0,0.0,////,0.0,0,0.0,////,23.2,0.0,12.3,3.521
2014/06/01,10:30:01,069,093,123,3.0,3.7,4.8,23.7,84.7,1004.8,0.00,0,0.0,////,0.0,0,0.0,////,24.3,0.0,12.3,3.521
2014/06/01,10:40:01,083,094,100,2.0,2.3,2.5,23.6,83.7,1004.8,0.00,0,0.0,////,0.0,0,0.0,////,24.3,0.0,12.2,3.521
2014/06/01,10:50:01,049,085,114,2.6,3.2,3.8,23.4,84.5,1004.6,0.00,0,0.0,////,0.0,0,0.0,////,23.6,0.0,12.3,3.523
2014/06/01,11:00:01,087,088,089,4.2,4.5,4.8,23.3,85.5,1004.6,0.00,0,0.0,////,0.0,0,0.0,////,23.4,0.0,12.3,3.523
2014/06/01,11:10:01,081,090,104,2.7,3.4,4.5,23.3,85.4,1004.3,0.00,20,0.0,////,0.0,0,0.0,////,23.4,0.0,12.3,3.521
2014/06/01,11:20:01,083,092,102,4.1,4.3,4.5,23.6,84.9,1004.3,0.00,0,0.0,////,0.0,0,0.0,////,24.1,0.0,12.3,3.523
2014/06/01,11:30:01,073,092,113,3.7,4.0,4.5,23.6,84.4,1004.3,0.00,0,0.0,////,0.0,0,0.0,////,24.1,0.0,12.3,3.521
2014/06/01,11:40:01,060,073,081,7.2,7.4,7.5,23.7,84.9,1004.1,0.00,0,0.0,////,0.0,0,0.0,////,24.4,0.0,12.3,3.523
2014/06/01,11:50:01,071,095,107,4.3,5.5,6.5,23.7,84.7,1004.0,0.00,0,0.0,////,0.0,0,0.0,////,24.1,0.0,12.3,3.523
2014/06/01,12:00:01,095,101,106,6.2,7.1,7.7,23.6,87.6,1003.9,0.00,0,0.0,////,0.0,0,0.0,////,23.7,0.0,12.3,3.521
2014/06/01,12:10:01,097,107,114,3.6,4.0,4.3,23.3,88.2,1004.0,0.00,80,0.0,////,0.0,0,0.0,////,23.4,0.0,12.2,3.521
2014/06/01,12:20:01,055,075,089,3.3,4.0,4.5,22.9,90.4,1003.8,0.01,20,0.1,////,0.0,0,0.0,////,22.7,0.0,12.3,3.521
2014/06/01,12:30:01,095,101,106,5.0,5.3,5.8,22.8,92.1,1003.8,0.19,510,0.6,////,0.0,0,0.0,////,22.4,0.0,12.3,3.521
2014/06/01,12:40:01,080,088,094,6.6,7.1,7.6,22.7,92.7,1003.8,0.19,530,0.5,////,0.0,0,0.0,////,22.2,0.0,12.3,3.521
2014/06/01,12:50:01,099,119,140,2.0,3.0,4.1,22.7,93.4,1003.6,0.03,330,0.1,////,0.0,0,0.0,////,22.0,0.0,12.3,3.523
2014/06/01,13:00:01,085,092,101,3.9,4.6,5.5,22.9,93.5,1003.5,0.06,470,0.4,////,0.0,0,0.0,////,22.7,0.0,12.3,3.523
2014/06/01,13:10:01,101,102,103,3.8,4.2,5.0,23.0,93.3,1003.4,0.05,520,0.2,////,0.0,0,0.0,////,22.9,0.0,12.3,3.521
2014/06/01,13:20:01,086,095,101,2.3,3.1,4.2,23.1,92.9,1003.3,0.01,110,0.0,////,0.0,0,0.0,////,22.9,0.0,12.3,3.521
2014/06/01,13:30:01,071,088,106,2.8,3.4,3.9,23.1,91.8,1003.0,0.01,130,0.4,////,0.0,0,0.0,////,22.9,0.0,12.3,3.521
2014/06/01,13:40:01,089,099,105,3.0,3.7,4.6,23.2,90.5,1002.9,0.05,480,0.3,////,0.0,0,0.0,////,22.9,0.0,12.3,3.521
2014/06/01,13:50:01,103,107,115,6.8,8.8,11.0,23.2,90.0,1002.9,0.02,160,0.0,////,0.0,0,0.0,////,23.1,0.0,12.3,3.521
2014/06/01,14:00:01,005,070,109,2.5,4.2,5.9,23.1,90.6,1002.8,0.00,0,0.0,////,0.0,0,0.0,////,22.7,0.0,12.3,3.523
2014/06/01,14:10:01,086,088,091,5.6,6.0,6.3,23.0,91.5,1002.7,0.09,390,0.8,////,0.0,0,0.0,////,22.5,0.0,12.3,3.521
2014/06/01,14:20:01,111,111,113,7.4,8.0,8.7,22.9,92.9,1002.6,0.03,290,0.0,////,0.0,0,0.0,////,22.2,0.0,12.3,3.521
2014/06/01,14:30:01,120,132,141,2.0,4.1,6.3,22.8,93.6,1002.3,0.02,200,0.0,////,0.0,0,0.0,////,22.2,0.0,12.3,3.523
2014/06/01,14:40:01,112,113,116,7.0,8.0,8.8,22.8,93.7,1002.5,0.00,60,0.0,////,0.0,0,0.0,////,22.2,0.0,12.3,3.521
2014/06/01,14:50:01,090,098,109,5.5,5.8,6.1,22.8,93.9,1002.6,0.00,10,0.0,////,0.0,0,0.0,////,22.0,0.0,12.3,3.521
2014/06/01,15:00:01,065,066,067,1.6,1.9,2.5,22.9,93.8,1002.6,0.00,0,0.0,////,0.0,0,0.0,////,22.2,0.0,12.3,3.521
2014/06/01,15:10:01,088,090,093,5.5,5.9,6.1,23.0,93.4,1002.5,0.00,0,0.0,////,0.0,0,0.0,////,22.4,0.0,12.3,3.523
2014/06/01,15:20:01,098,103,108,3.0,3.1,3.3,23.1,92.7,1002.5,0.00,0,0.0,////,0.0,0,0.0,////,22.5,0.0,12.3,3.521
2014/06/01,15:30:01,096,103,111,3.7,4.0,4.5,23.1,91.9,1002.4,0.00,0,0.0,////,0.0,0,0.0,////,22.5,0.0,12.3,3.523
2014/06/01,15:40:01,113,116,120,5.6,5.8,5.9,23.2,91.7,1002.3,0.00,0,0.0,////,0.0,0,0.0,////,22.5,0.0,12.3,3.523
2014/06/01,15:50:01,076,085,101,3.3,4.2,5.6,23.3,91.7,1002.2,0.00,0,0.0,////,0.0,0,0.0,////,22.9,0.0,12.3,3.520
2014/06/01,16:00:01,102,113,128,3.4,4.2,5.0,23.2,91.4,1002.2,0.00,0,0.0,////,0.0,0,0.0,////,22.5,0.0,12.3,3.521
2014/06/01,16:10:01,095,109,124,8.1,8.4,8.7,23.2,91.9,1001.7,0.00,10,0.0,////,0.0,0,0.0,////,22.4,0.0,12.3,3.521
2014/06/01,16:20:01,093,098,103,4.5,5.7,6.8,23.1,92.5,1001.7,0.01,140,0.0,////,0.0,0,0.0,////,22.4,0.0,12.1,3.523
2014/06/01,16:30:01,104,109,115,5.1,5.9,6.9,23.1,92.9,1001.7,0.02,380,0.0,////,0.0,0,0.0,////,22.4,0.0,12.3,3.521
2014/06/01,16:40:01,110,117,124,6.1,6.5,6.8,23.1,92.7,1001.8,0.00,30,0.0,////,0.0,0,0.0,////,22.2,0.0,12.3,3.520
2014/06/01,16:50:01,087,098,105,3.5,4.2,5.0,23.2,92.6,1001.8,0.00,0,0.0,////,0.0,0,0.0,////,22.4,0.0,12.3,3.521
2014/06/01,17:00:01,101,105,109,4.1,4.7,5.0,23.1,92.7,1002.0,0.00,0,0.0,////,0.0,0,0.0,////,22.2,0.0,12.3,3.523
2014/06/01,17:10:01,113,124,140,2.6,3.0,3.3,23.1,93.2,1002.1,0.00,0,0.0,////,0.0,0,0.0,////,22.2,0.0,12.3,3.521
2014/06/01,17:20:01,082,088,095,5.8,6.8,7.3,23.0,93.0,1001.9,0.00,0,0.0,////,0.0,0,0.0,////,22.0,0.0,12.3,3.523
2014/06/01,17:30:01,111,117,124,4.4,5.8,6.7,22.9,93.2,1001.8,0.01,10,0.0,////,0.0,0,0.0,////,22.0,0.0,12.3,3.523
2014/06/01,17:40:01,126,133,145,5.3,5.9,6.4,22.8,93.4,1001.9,0.00,0,0.0,////,0.0,0,0.0,////,21.8,0.0,12.3,3.521
2014/06/01,17:50:01,118,122,125,4.7,4.9,5.0,22.6,93.5,1002.1,0.00,0,0.0,////,0.0,0,0.0,////,21.7,0.0,12.3,3.521
2014/06/01,18:00:01,095,101,112,4.2,4.5,4.8,22.6,93.7,1002.1,0.00,0,0.0,////,0.0,0,0.0,////,21.7,0.0,12.3,3.523
2014/06/01,18:10:01,122,125,130,3.9,4.4,4.8,22.6,93.8,1002.0,0.00,0,0.0,////,0.0,0,0.0,////,21.8,0.0,12.3,3.521
2014/06/01,18:20:01,116,121,128,9.8,9.9,9.9,22.6,93.6,1002.0,0.00,0,0.0,////,0.0,0,0.0,////,21.5,0.0,12.3,3.520
2014/06/01,18:30:01,087,094,105,5.2,5.5,5.8,22.7,93.7,1002.1,0.00,0,0.0,////,0.0,0,0.0,////,21.3,0.0,12.3,3.521
2014/06/01,18:40:01,123,130,136,2.8,3.8,4.4,22.6,93.6,1002.1,0.00,0,0.0,////,0.0,0,0.0,////,21.7,0.0,12.3,3.521
2014/06/01,18:50:01,099,102,105,4.9,6.4,7.3,22.5,93.5,1002.1,0.00,0,0.0,////,0.0,0,0.0,////,21.5,0.0,12.3,3.523
2014/06/01,19:00:01,118,125,130,7.3,7.7,8.4,22.6,93.2,1002.0,0.00,0,0.0,////,0.0,0,0.0,////,21.7,0.0,12.3,3.523
2014/06/01,19:10:01,118,121,124,5.8,6.9,8.0,22.6,92.9,1001.9,0.00,0,0.0,////,0.0,0,0.0,////,21.7,0.0,12.3,3.521
2014/06/01,19:20:01,105,110,114,5.5,5.9,6.2,22.6,93.0,1002.0,0.00,0,0.0,////,0.0,0,0.0,////,21.5,0.0,12.3,3.521
2014/06/01,19:30:01,104,108,113,6.5,6.9,7.5,22.6,93.1,1001.9,0.00,0,0.0,////,0.0,0,0.0,////,21.5,0.0,12.3,3.521
2014/06/01,19:40:01,114,115,116,6.5,7.0,7.4,22.6,93.3,1001.8,0.00,0,0.0,////,0.0,0,0.0,////,21.5,0.0,12.3,3.521
2014/06/01,19:50:01,097,108,114,5.6,5.9,6.4,22.6,93.6,1001.9,0.00,0,0.0,////,0.0,0,0.0,////,21.5,0.0,12.2,3.523
2014/06/01,20:00:01,088,094,103,4.9,5.4,5.8,22.6,93.8,1001.8,0.00,0,0.0,////,0.0,0,0.0,////,21.7,0.0,12.3,3.521
2014/06/01,20:10:01,092,101,108,5.2,5.4,5.6,22.7,94.0,1001.8,0.00,0,0.0,////,0.0,0,0.0,////,21.5,0.0,12.3,3.523
2014/06/01,20:20:01,103,108,113,9.2,10.2,11.2,22.7,94.2,1001.7,0.00,0,0.0,////,0.0,0,0.0,////,21.7,0.0,12.3,3.521
2014/06/01,20:30:01,110,115,118,9.2,9.4,9.7,22.8,94.3,1001.8,0.00,0,0.0,////,0.0,0,0.0,////,21.7,0.0,12.3,3.520
2014/06/01,20:40:01,107,110,116,6.8,7.2,7.4,22.8,94.4,1001.8,0.00,0,0.0,////,0.0,0,0.0,////,21.8,0.0,12.3,3.521
2014/06/01,20:50:01,110,111,112,7.8,8.3,9.0,22.8,94.5,1001.9,0.00,0,0.0,////,0.0,0,0.0,////,21.8,0.0,12.3,3.523
2014/06/01,21:00:01,100,107,117,7.8,8.3,8.9,22.8,94.6,1001.8,0.00,0,0.0,////,0.0,0,0.0,////,22.0,0.0,12.3,3.521
2014/06/01,21:10:01,105,106,108,8.1,8.7,9.2,22.7,94.4,1001.9,0.00,0,0.0,////,0.0,0,0.0,////,21.7,0.0,12.3,3.523
2014/06/01,21:20:01,120,135,151,3.9,6.2,7.7,22.8,94.3,1001.9,0.00,0,0.0,////,0.0,0,0.0,////,21.8,0.0,12.3,3.523
2014/06/01,21:30:01,125,127,128,6.7,7.1,7.5,22.8,94.2,1001.9,0.00,0,0.0,////,0.0,0,0.0,////,21.2,0.0,12.2,3.521
2014/06/01,21:40:01,094,113,126,5.9,6.8,8.0,22.8,94.1,1002.0,0.00,10,0.0,////,0.0,0,0.0,////,21.8,0.0,12.3,3.523
2014/06/01,21:50:01,098,111,130,5.4,6.2,6.9,22.9,93.9,1002.0,0.00,0,0.0,////,0.0,0,0.0,////,21.8,0.0,12.3,3.521
2014/06/01,22:00:01,101,103,108,5.5,6.6,7.3,22.9,93.7,1002.1,0.00,0,0.0,////,0.0,0,0.0,////,21.8,0.0,12.3,3.523
2014/06/01,22:10:01,101,103,105,7.4,7.8,8.0,23.0,93.5,1002.0,0.00,0,0.0,////,0.0,0,0.0,////,22.0,0.0,12.3,3.521
2014/06/01,22:20:01,121,125,128,6.1,6.7,7.2,23.0,93.3,1002.1,0.00,0,0.0,////,0.0,0,0.0,////,22.0,0.0,12.3,3.523
2014/06/01,22:30:01,117,120,125,4.7,5.4,6.1,23.1,93.0,1002.1,0.00,0,0.0,////,0.0,0,0.0,////,22.0,0.0,12.3,3.523
2014/06/01,22:40:01,084,090,101,8.3,8.5,8.7,23.1,92.6,1002.1,0.00,0,0.0,////,0.0,0,0.0,////,22.2,0.0,12.3,3.523
2014/06/01,22:50:01,116,119,120,3.6,4.5,5.1,23.2,92.3,1002.2,0.00,0,0.0,////,0.0,0,0.0,////,22.2,0.0,12.3,3.523
2014/06/01,23:00:01,095,099,104,3.9,4.7,5.1,23.2,91.9,1002.2,0.00,0,0.0,////,0.0,0,0.0,////,22.4,0.0,12.4,3.521
2014/06/01,23:10:01,107,116,125,4.5,4.8,5.0,23.2,91.7,1002.2,0.00,0,0.0,////,0.0,0,0.0,////,22.4,0.0,12.3,3.523
2014/06/01,23:20:01,101,105,111,6.1,7.2,7.8,23.2,91.6,1002.0,0.00,0,0.0,////,0.0,0,0.0,////,22.4,0.0,12.3,3.521
2014/06/01,23:30:01,103,116,125,3.5,4.4,5.0,23.1,92.2,1002.0,0.00,0,0.0,////,0.0,0,0.0,////,22.0,0.0,12.3,3.521
2014/06/01,23:40:01,110,114,117,3.7,4.0,4.6,23.1,92.3,1002.1,0.00,0,0.0,////,0.0,0,0.0,////,22.0,0.0,12.3,3.523
2014/06/01,23:50:01,116,118,118,5.2,5.7,6.1,23.1,92.4,1002.0,0.00,0,0.0,////,0.0,0,0.0,////,22.2,0.0,12.3,3.523
2014/06/02,00:00:01,084,105,116,5.6,6.1,6.7,23.1,92.7,1001.7,0.00,30,0.0,////,0.0,0,0.0,////,22.2,0.0,12.3,3.521
2014/06/02,00:10:01,104,109,112,6.3,6.6,6.8,23.1,93.0,1001.6,0.00,0,0.0,////,0.0,0,0.0,////,22.0,0.0,12.3,3.520
2014/06/02,00:20:01,101,105,112,5.1,5.6,6.4,23.1,93.1,1001.2,0.00,0,0.0,////,0.0,0,0.0,////,22.2,0.0,12.3,3.521
2014/06/02,00:30:01,120,126,130,7.5,7.7,7.9,23.1,93.2,1001.1,0.00,0,0.0,////,0.0,0,0.0,////,22.0,0.0,12.3,3.523
2014/06/02,00:40:01,110,112,115,7.1,7.8,8.6,23.1,93.4,1001.1,0.00,0,0.0,////,0.0,0,0.0,////,22.0,0.0,12.3,3.521
2014/06/02,00:50:01,106,108,111,7.7,8.2,8.9,23.1,93.5,1000.9,0.00,0,0.0,////,0.0,0,0.0,////,22.2,0.0,12.3,3.523
2014/06/02,01:00:01,109,110,111,3.0,3.7,4.2,23.1,93.8,1000.9,0.00,0,0.0,////,0.0,0,0.0,////,22.0,0.0,12.3,3.521
2014/06/02,01:10:01,118,123,132,6.5,6.9,7.3,23.1,94.0,1000.8,0.00,0,0.0,////,0.0,0,0.0,////,22.0,0.0,12.3,3.521
2014/06/02,01:20:01,104,116,136,5.3,5.6,5.9,23.1,93.9,1000.8,0.00,0,0.0,////,0.0,0,0.0,////,22.0,0.0,12.3,3.523
2014/06/02,01:30:01,071,083,091,2.8,3.5,4.4,23.1,93.9,1000.6,0.00,0,0.0,////,0.0,0,0.0,////,21.8,0.0,12.3,3.521
2014/06/02,01:40:01,118,123,129,4.3,4.5,4.7,23.1,94.0,1000.5,0.00,0,0.0,////,0.0,0,0.0,////,22.0,0.0,12.3,3.521
2014/06/02,01:50:01,109,122,141,3.2,3.9,4.9,23.1,94.0,1000.7,0.00,0,0.0,////,0.0,0,0.0,////,22.2,0.0,12.3,3.521
2014/06/02,02:00:01,109,114,116,4.0,4.4,4.7,23.2,94.1,1000.8,0.00,0,0.0,////,0.0,0,0.0,////,22.2,0.0,12.3,3.521
2014/06/02,02:10:01,092,107,119,3.7,3.9,4.2,23.1,94.2,1000.5,0.00,0,0.0,////,0.0,0,0.0,////,22.0,0.0,12.3,3.523
2014/06/02,02:20:01,117,120,122,6.3,6.9,7.4,23.2,94.2,1000.3,0.00,0,0.0,////,0.0,0,0.0,////,22.0,0.0,12.3,3.521
2014/06/02,02:30:01,115,118,122,5.4,6.7,7.8,23.2,94.2,999.9,0.00,0,0.0,////,0.0,0,0.0,////,22.2,0.0,12.3,3.521
2014/06/02,02:40:01,121,123,125,7.1,7.7,8.2,23.2,94.1,999.6,0.00,0,0.0,////,0.0,0,0.0,////,22.2,0.0,12.3,3.523
2014/06/02,02:50:01,118,130,141,10.5,10.9,11.2,23.2,94.0,999.4,0.00,0,0.0,////,0.0,0,0.0,////,22.2,0.0,12.3,3.521
2014/06/02,03:00:01,130,135,145,6.4,8.0,9.3,23.2,94.0,999.3,0.00,0,0.0,////,0.0,0,0.0,////,22.2,0.0,12.3,3.523
2014/06/02,03:10:01,127,129,132,8.9,9.3,10.0,23.3,93.9,999.1,0.00,0,0.0,////,0.0,0,0.0,////,22.2,0.0,12.3,3.523
2014/06/02,03:20:01,137,147,155,7.3,8.0,8.4,23.3,93.9,998.8,0.00,0,0.0,////,0.0,0,0.0,////,22.2,0.0,12.3,3.521
2014/06/02,03:30:01,107,118,128,5.6,6.1,7.1,23.3,94.0,998.9,0.00,0,0.0,////,0.0,0,0.0,////,22.4,0.0,12.3,3.521
2014/06/02,03:40:01,122,129,137,4.2,5.2,6.0,23.3,93.9,999.0,0.00,0,0.0,////,0.0,0,0.0,////,22.4,0.0,12.3,3.524
2014/06/02,03:50:01,103,111,115,5.3,5.5,5.7,23.3,93.7,999.1,0.00,0,0.0,////,0.0,0,0.0,////,22.5,0.0,12.3,3.521
2014/06/02,04:00:01,126,130,132,5.2,6.1,6.9,23.4,93.3,998.9,0.00,0,0.0,////,0.0,0,0.0,////,22.4,0.0,12.3,3.521
2014/06/02,04:10:01,143,152,157,2.0,2.6,3.3,23.5,92.4,999.0,0.00,0,0.0,////,0.0,0,0.0,////,22.5,0.0,12.3,3.523
2014/06/02,04:20:01,103,111,122,3.4,3.8,3.6,23.6,91.6,999.4,0.00,0,0.0,////,0.0,0,0.0,////,22.5,0.0,12.3,3.520
2014/06/02,04:30:01,092,093,094,2.4,2.6,2.9,23.6,91.3,999.5,0.00,0,0.0,////,0.0,0,0.0,////,22.7,0.0,12.3,3.523
2014/06/02,04:40:01,323,332,339,0.9,1.1,1.3,23.7,90.9,999.5,0.00,0,0.0,////,0.0,0,0.0,////,22.9,0.0,12.3,3.521
2014/06/02,04:50:01,339,351,007,1.1,1.7,2.2,23.8,90.7,999.6,0.00,0,0.0,////,0.0,0,0.0,////,22.7,0.0,12.3,3.521
2014/06/02,05:00:01,314,325,335,4.0,4.1,4.2,23.9,90.3,999.6,0.00,0,0.0,////,0.0,0,0.0,////,23.7,0.0,12.3,3.521
2014/06/02,05:10:01,310,322,329,0.4,0.6,0.8,24.0,90.0,999.7,0.00,0,0.0,////,0.0,0,0.0,////,23.2,0.0,12.2,3.523
2014/06/02,05:20:01,340,017,080,0.2,0.4,0.7,24.0,90.0,999.7,0.00,0,0.0,////,0.0,0,0.0,////,23.2,0.0,12.3,3.523
2014/06/02,05:30:01,304,313,323,0.5,0.6,0.7,24.0,90.0,999.6,0.00,0,0.0,////,0.0,0,0.0,////,23.4,0.0,12.3,3.521
2014/06/02,05:40:01,005,010,018,0.3,0.5,0.7,23.9,90.4,999.6,0.00,0,0.0,////,0.0,0,0.0,////,23.4,0.0,12.3,3.521
2014/06/02,05:50:01,297,306,316,0.7,0.8,0.9,23.8,91.5,999.7,0.00,0,0.0,////,0.0,0,0.0,////,22.9,0.0,12.3,3.521
2014/06/02,06:00:01,025,030,036,1.7,1.8,1.9,23.8,91.8,999.7,0.00,0,0.0,////,0.0,0,0.0,////,22.9,0.0,12.3,3.521
2014/06/02,06:10:01,332,340,355,0.5,0.7,1.0,23.7,92.1,999.7,0.00,0,0.0,////,0.0,0,0.0,////,22.9,0.0,12.3,3.523
2014/06/02,06:20:01,261,265,273,2.3,2.5,2.8,23.8,92.2,999.7,0.00,0,0.0,////,0.0,0,0.0,////,23.1,0.0,12.3,3.521
2014/06/02,06:30:01,359,003,009,2.7,2.8,4.4,23.9,91.8,999.7,0.00,0,0.0,////,0.0,0,0.0,////,23.1,0.0,12.3,3.521
2014/06/02,06:40:01,036,041,047,1.7,2.2,2.8,23.9,92.2,999.7,0.00,0,0.0,////,0.0,0,0.0,////,23.2,0.0,12.3,3.521
2014/06/02,06:50:01,045,054,059,2.5,2.8,3.0,24.1,92.1,999.7,0.00,0,0.0,////,0.0,0,0.0,////,23.6,0.0,12.3,3.521
2014/06/02,07:00:01,160,179,203,2.3,2.7,3.0,24.1,91.9,999.6,0.00,0,0.0,////,0.0,0,0.0,////,23.6,0.0,12.3,3.521
2014/06/02,07:10:01,128,140,148,2.6,2.7,2.9,24.3,91.3,999.6,0.00,0,0.0,////,0.0,0,0.0,////,24.1,0.0,12.3,3.521
2014/06/02,07:20:01,159,183,225,2.7,3.3,3.9,24.2,91.7,1000.0,0.00,0,0.0,////,0.0,0,0.0,////,24.1,0.0,12.3,3.521
2014/06/02,07:30:01,331,333,337,2.2,2.4,2.6,24.2,91.8,1000.0,0.00,0,0.0,////,0.0,0,0.0,////,23.9,0.0,12.3,3.521
2014/06/02,07:40:01,343,348,357,0.5,0.7,1.0,24.2,91.7,999.9,0.00,0,0.0,////,0.0,0,0.0,////,23.9,0.0,12.3,3.524
2014/06/02,07:50:01,310,314,322,1.7,1.9,2.1,24.2,91.9,999.9,0.00,0,0.0,////,0.0,0,0.0,////,23.7,0.0,12.3,3.523
2014/06/02,08:00:01,298,305,309,1.8,1.8,1.9,24.3,91.6,999.9,0.00,0,0.0,////,0.0,0,0.0,////,23.9,0.0,12.3,3.521
2014/06/02,08:10:01,268,287,303,0.5,0.7,0.8,24.4,91.7,999.8,0.00,0,0.0,////,0.0,0,0.0,////,24.1,0.0,12.3,3.521
2014/06/02,08:20:01,207,215,225,0.4,0.5,0.6,24.5,91.2,999.9,0.00,0,0.0,////,0.0,0,0.0,////,24.6,0.0,12.3,3.523
2014/06/02,08:30:01,006,012,017,1.4,1.6,1.8,24.6,91.0,999.9,0.00,0,0.0,////,0.0,0,0.0,////,24.8,0.0,12.3,3.521
2014/06/02,08:40:01,316,321,326,1.1,1.3,1.4,24.7,91.1,1000.0,0.00,0,0.0,////,0.0,0,0.0,////,25.0,0.0,12.3,3.521
2014/06/02,08:50:01,314,316,319,0.5,0.7,0.9,24.7,90.4,1000.0,0.00,0,0.0,////,0.0,0,0.0,////,25.0,0.0,12.3,3.521
2014/06/02,09:00:01,004,007,011,2.0,2.1,2.2,24.8,90.5,1000.1,0.00,0,0.0,////,0.0,0,0.0,////,25.5,0.0,12.3,3.523
2014/06/02,09:10:01,157,168,179,1.2,1.2,1.3,25.0,90.3,1000.0,0.00,0,0.0,////,0.0,0,0.0,////,25.3,0.0,12.3,3.523
2014/06/02,09:20:01,004,007,012,3.0,3.3,3.4,25.3,89.0,999.9,0.00,0,0.0,////,0.0,0,0.0,////,26.2,0.0,12.3,3.520
2014/06/02,09:30:01,215,219,223,2.5,2.6,2.7,25.5,88.9,999.9,0.00,0,0.0,////,0.0,0,0.0,////,26.8,0.0,12.3,3.521
2014/06/02,09:40:01,117,119,124,0.6,0.7,0.9,25.4,87.7,999.9,0.00,0,0.0,////,0.0,0,0.0,////,26.8,0.0,12.3,3.521
2014/06/02,09:50:01,228,232,236,1.0,1.1,1.3,25.7,87.0,1000.0,0.00,0,0.0,////,0.0,0,0.0,////,27.0,0.0,12.3,3.520
2014/06/02,10:00:01,237,244,254,1.8,1.9,2.1,25.6,87.3,1000.0,0.00,0,0.0,////,0.0,0,0.0,////,26.5,0.0,12.3,3.521
2014/06/02,10:10:01,354,006,015,0.4,0.5,0.6,25.8,87.1,1000.0,0.00,0,0.0,////,0.0,0,0.0,////,27.0,0.0,12.2,3.520
2014/06/02,10:20:01,270,289,304,0.5,0.6,0.7,26.2,85.9,1000.0,0.00,0,0.0,////,0.0,0,0.0,////,28.7,0.0,12.3,3.521
2014/06/02,10:30:01,190,191,193,0.9,1.1,1.3,26.1,84.0,1000.0,0.00,0,0.0,////,0.0,0,0.0,////,28.1,0.0,12.3,3.521
2014/06/02,10:40:01,186,192,194,2.3,2.5,2.7,26.0,86.5,999.9,0.00,0,0.0,////,0.0,0,0.0,////,27.2,0.0,12.3,3.523